Location: Newark
(49.8969°N, 3.3422°E)
Time: 07:26:31
(UTC+00:00)

A-11 Canister half - Pass Details

Date: 27 January 2020
Orbit: 1517 x 1683 km, 47.2° (Epoch: 20 February)

Event Time Altitude Azimuth Distance (km) Brightness Sun altitude
Rises 21:33:35 0° 203° (SSW) 4,768 - -47.2°
Reaches altitude 10° 21:37:11 10° 193° (SSW) 3,761 - -47.6°
Maximum altitude 21:44:57 30° 137° (SE) 2,507 - -48.6°
Drops below altitude 10° 21:52:33 10° 82° (E) 3,693 - -49.6°
Sets 21:56:02 0° 72° (ENE) 4,669 - -50.0°
